sat.trackr.live / text

‹ back to catalog

STARLINK-11353 [DTC]

NORAD 61941 · 2024-209C

PAYLOAD ACTIVE UNKNOWN

§ Identity

Operator
Country
US
Launch date
2024-11-14
Launch site
AFWTR
Launch vehicle
Mass (kg)
RCS (m²)

Purposes: comms

External: N2YO · Heavens-Above · Gunter

§ Orbital elements

Epoch: 2026-09-21T22:13:11.014752Z

Period
91.74 min
Inclination
53.1567°
Eccentricity
0.0002261
Mean motion
15.69712750 rev/d
Perigee alt
358.2 km
Apogee alt
361.2 km
Semi-major
6,737.9 km
B*
1.1026e-3
RAAN
123.5507°
Arg perigee
22.0042°
Mean anomaly
338.1072°
Rev number
10,750

§ Raw data

STARLINK-11353 [DTC]1 61941U 24209C   26264.92582193  .00135212  00000+0  11026-2 0  99922 61941  53.1567 123.5507 0002261  22.0042 338.1072 15.69712750107504

JSON: /api/v1/satellites/61941 · /tle

For live sub-satellite position, see the globe view (requires WebGL).

§ Visibility from observer

Set your observer location to see the next 7 days of passes ≥ 10°. The values pass through the URL so the page stays shareable.

No JS? Fill the form by hand. The geolocation button needs JavaScript.